Location: Ab? ar R?sh Ba?r?
(24.1861°N, 32.8847°E)
Time: 11:40:31
(UTC+00:00)

Palapa B4 Rocket - Pass Details

Date: 24 October 2021
Orbit: 502 x 2695 km, 19.7° (Epoch: 03 December)

Event Time Altitude Azimuth Distance (km) Brightness Sun altitude
Rises 16:44:54 0° 262° (W) 3,179 8.3 -21.2°
Reaches altitude 10° 16:46:57 10° 258° (WSW) 2,442 7.2 -21.7°
Maximum altitude 16:52:45 63° 178° (S) 1,260 4.5 -23.0°
Enters shadow 16:56:14 37° 113° (ESE) 1,973 5.1 -23.8°
